map of FNI home
Great Circle Mapper logo
FNI - Airport
Location
City:  Nīmes, France
Name:NAS Nīmes-Garons
ICAO / IATA:LFTW / FNI

Details
Type:Airport (Aerodrome, Airfield)
Use:Public/Civil
Latitude:43°45'27"N (43.757500)
Longitude:4°24'59"E (4.416389)
Elevation:309 ft (94 m)
Runways:1
Longest:8015 × 148 ft (2443 × 45 m), paved

Time
Time Zone:UTC+1 (DST+2)
Local Time:

Weather
METAR:LFTW 251200Z AUTO 19004KT 130V230 9999 NSC 26/18 Q1012
TAF:LFTW 251100Z 2512/2612 VRB02KT 9999 NSC
BECMG 2512/2514 18010KT
TEMPO 2514/2603 34015G30KT 2000 TSRA BR BKN010 BKN015CB
BECMG 2603/2606 36006KT

Related Locations
Nearby:
Farthest:CHT: 12397 mi / 19951 km
Waitangi [Tuuta], Chatham Islands, NZ

Find:

   beyond  
but within

Other Information
Maps:
NOTAMs:
Links:
Sources:

  
flag of France   

Sectional Chart

Flight Planning
at skyvector.com

Satellite Image

Google Maps Satellite View

 

Copyright © 2004-2014 Karl L. Swartz. All rights reserved.
The Great Circle Mapper name and logo are trademarks of the Great Circle Mapper.
All other trademarks mentioned herein belong to their respective owners.
Please see credits for attibutions and further copyright information.

  Follow gcmap on Facebook Follow gcmap on Twitter

hCard Microformat

Geo Microformat